Tracking 19717 objects as of 24-Jun-2019
HD Live streaming from Space Station
objects crossing your sky now

DELTA 1 DEB

Track DELTA 1 DEB now!
10-day predictions


NORAD ID: 7141
Int'l Code: 1973-086DF
Perigee: 1,496.7 km
Apogee: 1,533.2 km
Inclination: 102.3 °
Period: 116.2 minutes
Semi major axis: 7885 km
RCS: 0.0598 m2 (small)
Launch date: November 6, 1973
Source: United States (US)
Launch site: AIR FORCE WESTERN TEST RANGE (AFWTR)

Note: This is SATELLITE DEBRIS
aabbcc
Your satellite tracking list
Your tracking list is empty




NASA's NSSDC Master Catalog

Two Line Element Set (TLE):
1  7141U 73086DF  19174.96076309 +.00000105 +00000-0 +11320-2 0  9994
2  7141 102.2816 188.8572 0023167 353.5879 035.8261 12.39721279058880
Source of the keplerian elements: AFSPC